Home > Weather > Mesquite > Past weeks

Flag for U.S.A. Weather for the Past 2 Weeks in Mesquite, Texas, U.S.A.

Now
49 °F

Clear.


Feels Like: 42 °F
Forecast: 40 / 54 °F
Wind: 17 mph from Northwest

Location: Mesquite Metro Airport

Current Time: Feb 8, 2016 at 1:21:03 AM

Latest Report: Feb 8, 2016 at 1:00 AM


Visibility: 10 mi

Pressure: 30.27 "Hg

Humidity: 44%

Dew point: 28 °F

Location of MesquiteLocation

Historic Weather in Mesquite — Graph

°F

Mesquite Temperature Yesterday

Maximum temperature yesterday: 63 °F (at 2:50 PM)
Minimum temperature yesterday: 31 °F (at 3:35 AM)
Average temperature yesterday: 44 °F

High & Low Weather Summary for the Past Weeks

 TemperatureHumidityPressure
High75 °F (Jan 29, 1:50 PM)100% (Feb 7, 4:15 AM)30.52 "Hg (Feb 7, 4:15 AM)
Low30 °F (Jan 27, 6:50 AM)17% (Feb 2, 3:50 PM)29.54 "Hg (Feb 1, 5:50 PM)
Average48 °F61%30.08 "Hg
* Reported Jan 24 12:15 AM — Feb 8 12:15 AM, Mesquite, Weather by CustomWeather, © 2016

Note: Actual official high and low records may vary slightly from our data, if they occured in-between our weather recording intervals... More about our weather records

Advertising

Mesquite Weather History for the Previous 24 Hours

 ConditionsComfort  
Time TempWeatherWind HumidityBarometerVisibility
12:15 AM
Mon, Feb 8
45 °FClear.7 mph60%30.27 "Hg10 mi
11:55 PM
Sun, Feb 7
46 °FClear.9 mph59%30.26 "Hg10 mi
11:35 PM45 °FClear.9 mph61%30.25 "Hg10 mi
11:15 PM47 °FClear.6 mph57%30.25 "Hg10 mi
10:55 PM47 °FClear.5 mph57%30.24 "Hg10 mi
10:15 PM46 °FClear.6 mph60%30.22 "Hg10 mi
9:15 PM49 °FClear.No wind56%30.19 "Hg10 mi
8:55 PM48 °FClear.No wind58%30.18 "Hg10 mi
8:35 PM48 °FClear.No wind55%30.18 "Hg10 mi
8:15 PM49 °FClear.No wind55%30.17 "Hg10 mi
7:55 PM51 °FClear.No wind51%30.16 "Hg10 mi
7:15 PM56 °FClear.No wind41%30.15 "Hg10 mi
6:50 PM57 °FClear.No wind41%30.14 "Hg10 mi
5:50 PM61 °FSunny.No wind36%30.12 "Hg10 mi
4:50 PM63 °FSunny.8 mph32%30.11 "Hg10 mi
3:50 PM63 °FSunny.9 mph30%30.09 "Hg10 mi
2:50 PM63 °FSunny.9 mph30%30.11 "Hg10 mi
1:50 PM61 °FSunny.13 mph34%30.13 "Hg10 mi
12:50 PM57 °FSunny.12 mph48%30.15 "Hg10 mi
11:50 AM55 °FSunny.16 mph47%30.20 "Hg10 mi
10:50 AM52 °FSunny.14 mph58%30.23 "Hg10 mi
8:50 AM37 °FFog.8 mph93%30.25 "Hg4 mi
7:50 AM32 °FIce fog.3 mph100%30.26 "Hg3 mi
6:50 AM32 °FIce fog.5 mph93%30.26 "Hg3 mi
5:15 AM32 °FClear.7 mph99%30.25 "Hg3 mi
4:55 AM32 °FClear.No wind100%30.26 "Hg4 mi
4:15 AM32 °FClear.5 mph100%30.26 "Hg5 mi
3:55 AM32 °FClear.5 mph99%30.27 "Hg5 mi
3:35 AM31 °FClear.6 mph96%30.27 "Hg7 mi
3:15 AM32 °FClear.7 mph98%30.27 "Hg7 mi
2:55 AM33 °FClear.6 mph97%30.28 "Hg7 mi
2:15 AM34 °FClear.5 mph97%30.31 "Hg7 mi
1:55 AM34 °FClear.5 mph97%30.32 "Hg7 mi
1:35 AM34 °FClear.3 mph95%30.33 "Hg7 mi
1:15 AM36 °FClear.No wind93%30.33 "Hg10 mi
Weather by CustomWeather, © 2016

See weather overviewHow to use our weather pages